Location: Beckton
(51.5167°N, 0.0667°E)
Time: 01:23:45
(UTC+00:00)

Daily predictions for brighter satellites

Satellite Brightness Start Highest point End
(mag) Time Altitude Azimuth Time Altitude Azimuth Time Altitude Azimuth
CZ-4C R/B 4.5 02:34:41 20° ENE 02:34:41 20° ENE 02:36:54 10° NE
Cosmos 1980 Rocket 4.3 02:49:40 21° NE 02:49:40 21° NE 02:53:46 10° E
IDEFIX/ARIANE 42P 4.4 03:08:06 10° NNE 03:10:59 27° NE 03:10:59 27° NE
Cosmos 1697 Rocket 3.6 03:32:34 46° ENE 03:32:34 46° ENE 03:37:19 10° SE
COSMOS 2406 4.2 03:33:36 43° ESE 03:33:43 43° ESE 03:39:10 10° NE
ATLAS 2AS CENTAUR R/B 4.0 03:32:41 32° NNW 03:34:43 37° NNE 03:41:38 10° E
Cosmos 2285 Rocket 4.2 03:38:29 68° NE 03:38:29 68° NE 03:44:11 10° NNE
SL-16 R/B 4.5 03:49:20 13° N 03:49:20 13° N 03:50:47 10° N
Cosmos 2082 Rocket 4.4 03:50:39 10° SSE 03:55:03 23° ESE 03:59:28 10° NE
CZ-2C R/B 3.9 03:50:58 10° NNE 03:55:33 35° E 03:59:58 10° SSE
Lacrosse 5 rocket 3.6 04:01:34 19° NE 04:01:34 19° NE 04:02:42 10° ENE
Lacrosse 5 4.3 03:58:02 11° SSE 04:01:00 17° SE 04:04:14 10° E
ADEOS 3.8 03:56:47 10° NNE 04:01:22 65° NE 04:01:22 65° NE
Cosmos 1777 Rocket 4.3 04:09:59 53° SSE 04:10:53 62° ESE 04:16:03 10° NNE
USA 234 3.6 04:06:23 10° E 04:12:45 56° N 04:14:11 47° NW
Cosmos 1680 Rocket 4.2 04:11:54 28° N 04:14:25 51° ENE 04:19:34 10° SE
CZ-4C R/B 2.3 04:19:52 60° NNW 04:19:52 60° NNW 04:26:06 10° NE
Cosmos 1833 Rocket 3.5 04:15:59 15° S 04:20:23 48° ESE 04:25:46 10° NE
COSMOS 2441 4.4 04:16:03 10° NNE 04:20:57 79° ESE 04:21:22 72° SSE
COSMOS 2455 4.1 04:18:33 21° NNW 04:21:52 36° NE 04:27:22 10° ESE
SL-16 R/B 3.9 04:17:56 13° NNW 04:22:03 29° NE 04:26:56 10° E
Cosmos 1934 Rocket 4.0 04:18:06 10° S 04:24:23 80° E 04:30:47 10° NNE
Cosmos 2360 Rocket 4.4 04:23:22 10° NNW 04:27:25 19° NNE 04:31:27 10° ENE
SL-4 R/B 2.3 04:28:59 86° SE 04:28:59 86° SE 04:33:47 10° E
H-2A R/B 2.6 04:25:56 10° NNE 04:30:28 83° ESE 04:30:50 74° S
NOSS 2-1 (E) 4.1 04:31:47 43° NNE 04:31:47 43° NNE 04:34:45 10° NE
MSX 3.7 04:25:44 10° NNE 04:31:32 83° WNW 04:34:50 27° SSW
Cosmos 1980 Rocket 2.3 04:31:29 30° NNW 04:34:28 74° ENE 04:40:09 10° SE
Cosmos 2322 Rocket 3.8 04:30:20 12° NNW 04:34:53 30° NE 04:39:49 10° ESE
SKYMED 2 4.4 04:33:10 10° SE 04:37:22 50° ENE 04:41:35 10° N
Cosmos 923 Rocket 3.9 04:35:54 43° NNW 04:37:42 89° WSW 04:42:55 10° SSE
COBE Rocket 4.1 04:32:43 10° SSE 04:37:52 75° ENE 04:42:58 10° N
Cosmos 2239 Rocket 4.4 04:35:56 39° SW 04:38:13 64° WNW 04:44:20 10° N
Meteor 1-27 4.2 04:37:39 10° NNW 04:43:31 79° W 04:49:21 10° S
Cosmos 2123 Rocket 3.9 04:39:12 10° NNW 04:45:17 61° W 04:51:22 10° S
Meteor 1-31 Rocket 2.9 04:41:32 10° NNE 04:45:22 72° ESE 04:47:20 27° S
Cosmos 2369 3.8 04:46:04 50° W 04:46:52 54° WSW 04:52:25 10° S
Cosmos 1869 3.9 04:44:32 14° N 04:47:47 56° ENE 04:51:38 10° SSE
IDEFIX/ARIANE 42P 3.1 04:47:42 10° N 04:51:46 38° NW 04:51:46 38° NW
Cosmos 1484 Rocket 3.9 04:49:23 10° NNE 04:53:14 45° E 04:57:05 10° S
Cosmos 2084 Rocket 4.3 04:51:20 21° SSW 04:54:05 50° SE 04:58:24 10° NE
Cosmos 2360 4.1 04:53:12 31° NW 04:56:02 70° WSW 05:01:44 10° SSE
GENESIS II 4.3 04:56:25 61° SW 04:56:25 61° SW 05:00:21 10° SSE
Cosmos 1821 Rocket 4.3 04:59:31 37° W 05:00:52 41° WNW 05:06:41 10° N
SJ-6F 4.3 04:57:08 10° N 05:01:10 59° WNW 05:01:30 56° W
CZ-4B R/B 4.0 04:58:35 10° NNE 05:03:03 78° WNW 05:07:32 10° SSW
Cosmos 1605 Rocket 3.9 04:57:38 10° SSW 05:03:53 82° W 05:10:05 10° N
Meteor PRIRODA 3.7 05:00:45 10° NNE 05:04:28 76° ESE 05:08:08 10° S
Cosmos 2278 3.9 05:05:37 31° NW 05:08:05 51° WSW 05:13:34 10° S
Cosmos 1076 Rocket 3.6 05:04:46 10° S 05:09:07 80° E 05:13:30 10° NNE
NOSS 2-2 (C) 4.5 05:07:56 25° NW 05:11:30 87° NE 05:19:08 10° SE
ALOS 3.4 05:08:18 10° NNE 05:12:49 46° E 05:17:18 10° S
Meteor 2-20 4.4 05:07:57 10° NNW 05:14:09 81° W 05:20:18 10° S
Cosmos 1697 Rocket 3.2 05:14:23 32° WNW 05:15:44 36° WSW 05:20:48 10° S
Cosmos 2221 3.0 05:16:47 37° W 05:17:03 38° W 05:21:06 10° SSW
Meteor 1-11 4.3 05:11:54 10° SSW 05:17:30 54° WNW 05:23:12 10° N
COSMOS 2406 3.6 05:15:43 29° W 05:18:05 43° NW 05:23:36 10° NNE
PSLV R/B 3.7 05:14:56 10° NNE 05:18:44 89° E 05:22:37 10° SSW
Cosmos 1892 4.1 05:15:25 10° SSE 05:18:58 39° E 05:22:32 10° NNE
Cosmos 2219 Rocket 4.3 05:18:23 10° NNW 05:22:18 19° NNE 05:26:13 10° ENE
FENGYUN 3A 4.4 05:18:36 10° NNE 05:23:58 57° E 05:29:17 10° S
STARLINK-67 2.6 05:24:31 58° NNW 05:24:38 59° N 05:27:16 10° E
COSMO-SKYMED 1 2.5 05:21:04 10° S 05:25:21 59° W 05:29:41 10° NNW
CZ-4B DEB 4.4 05:20:59 10° NNE 05:26:28 73° ESE 05:31:56 10° S
STARLINK-46 2.6 05:26:11 54° W 05:26:43 76° NNW 05:29:43 10° ENE
ATLAS 2AS CENTAUR R/B 3.1 05:20:07 14° NW 05:27:01 71° NE 05:34:15 10° SE
Cosmos 2058 2.9 05:23:12 10° S 05:27:25 89° W 05:31:40 10° N
CZ-4B R/B 3.1 05:29:57 10° N 05:33:19 37° WNW 05:35:21 20° SW
NOSS 2-1 (C) 4.2 05:32:34 26° NW 05:33:24 29° NNW 05:37:07 10° NE
CZ-2C R/B 2.9 05:29:13 10° N 05:33:49 38° WNW 05:38:16 10° SW
Okean O Rocket 2.2 05:29:31 10° NNE 05:33:51 59° ESE 05:38:07 10° S
Cosmos 1461 3.4 05:33:30 29° WNW 05:34:44 37° NW 05:38:29 10° NNE
ASTEX 1 3.9 05:30:20 10° SSW 05:34:55 37° W 05:39:34 10° NNW
NOSS 2-1 (D) 4.3 05:35:46 25° NW 05:36:45 28° NNW 05:40:29 10° NE
Cosmos 2082 Rocket 2.2 05:32:53 10° SW 05:38:37 73° WNW 05:44:22 10° NNE
Lacrosse 5 rocket 2.0 05:37:13 24° NW 05:38:41 33° N 05:41:59 10° ENE
SJ 16-02 1.8 05:36:15 10° S 05:40:36 66° ESE 05:44:58 10° NNE
In-Cosmos 22 Rocket 4.2 05:35:58 10° S 05:41:18 81° E 05:46:48 10° NNE
Cosmos 1356 Rocket 3.9 05:37:28 10° NNW 05:41:32 41° W 05:45:34 10° SSW
SJ-12 3.8 05:37:41 10° N 05:41:51 77° WNW 05:46:00 10° SSW
Lacrosse 5 2.2 05:38:10 10° SW 05:43:12 67° SE 05:48:15 10° ENE
Cosmos 1408 4.2 05:40:52 10° SSE 05:44:19 39° E 05:47:48 10° NNE
METEOR-M 4.2 05:40:10 10° NNE 05:45:33 85° ESE 05:50:54 10° SSW
Shenzhou-11 Module 4.5 05:44:17 10° SSW 05:45:39 13° S 05:47:00 10° SE
STARLINK-52 3.8 05:47:53 12° SW 05:51:06 56° SSE 05:54:33 10° ENE
Cosmos 1825 4.0 05:48:43 10° SSE 05:52:10 35° E 05:55:39 10° NNE
Tsikada Rocket 4.5 05:48:59 10° N 05:55:25 67° ENE 06:01:45 10° SSE
USA 234 3.3 05:48:56 10° ESE 05:55:29 79° NNE 06:01:31 13° WNW
Cosmos 1459 Rocket 4.0 05:49:20 10° S 05:55:31 85° W 06:01:50 10° N
Cosmos 2016 Rocket 4.4 05:50:00 10° S 05:56:10 72° E 06:02:30 10° NNE
Cosmos 1680 Rocket 4.4 05:52:16 12° NW 05:56:18 29° W 06:00:48 10° SSW
MOS 1-B 4.3 05:50:49 10° NNE 05:56:36 64° WNW 06:02:19 10° SSW
Cosmos 2151 2.9 05:58:37 10° SSW 06:02:55 78° WNW 06:07:16 10° N
Cosmos 1833 Rocket 3.2 05:59:14 10° WSW 06:04:28 38° NW 06:09:44 10° NNE
H-2A R/B 4.2 06:02:32 10° NNW 06:05:24 17° WNW 06:07:24 13° W
STARLINK-29 3.4 06:02:39 10° WSW 06:06:07 71° SSE 06:09:37 10° ENE
Radarsat Rocket 4.4 06:00:36 10° NNE 06:06:34 67° ESE 06:12:20 10° S
deb Kosmos-1763 4.0 06:02:54 10° SSW 06:06:35 66° WNW 06:10:18 10° NNE
SL-16 R/B 2.2 06:01:03 10° NNW 06:06:44 74° WSW 06:12:23 10° SSE
BREEZE-M DEB (TANK) 3.9 06:05:23 11° WSW 06:07:48 23° SSW 06:10:03 10° SE
COSMOS 2455 2.9 06:02:15 10° NW 06:08:16 69° WSW 06:14:13 10° SSE
SL-4 R/B 2.4 06:04:36 14° W 06:08:46 85° SSW 06:13:35 10° ESE
Cosmos 2100 Rocket 4.0 06:02:40 10° SSW 06:08:50 66° WNW 06:15:01 10° N
CZ-4C R/B 3.5 06:05:04 13° WNW 06:09:32 31° N 06:15:33 10° NE
Cosmos 2237 Rocket 4.3 06:05:40 10° NNW 06:09:33 18° NNE 06:13:24 10° ENE
Cosmos 2360 Rocket 2.7 06:06:54 10° NNW 06:12:35 64° NE 06:18:13 10° SE
Cosmos 1048 Rocket 4.5 06:09:24 10° NNW 06:14:48 67° ENE 06:20:09 10° SE
SL-27 R/B 2.5 06:11:51 10° SW 06:15:05 49° WNW 06:18:20 10° NNE
Gbstr 26 Del rocket 4.0 06:14:04 10° SW 06:17:36 38° SSE 06:21:08 10° E
Cosmos 1980 Rocket 3.4 06:13:34 10° NW 06:17:54 23° WSW 06:22:13 10° SSW
Cosmos 1802 Rocket 4.1 06:11:54 10° SSW 06:18:19 73° WNW 06:24:47 10° N
ATLAS CENTAUR R/B 4.4 06:15:14 10° S 06:19:12 25° ESE 06:23:06 10° ENE
Meteor 1-31 Rocket 4.5 06:17:13 10° NNW 06:19:19 14° WNW 06:21:24 10° W
Cosmos 2322 Rocket 2.2 06:13:47 10° NW 06:19:25 69° WSW 06:25:03 10° SSE
Cosmos 1400 Rocket 3.7 06:15:53 10° N 06:19:57 53° ENE 06:23:56 10° SSE
Cosmos 1515 Rocket 3.5 06:15:56 10° NNW 06:20:19 82° W 06:24:38 10° S
Cosmos 2061 Rocket 4.0 06:16:48 10° SSW 06:23:03 75° W 06:29:19 10° N
Cosmos 1328 Rocket 3.8 06:20:53 10° NNW 06:25:06 48° W 06:29:15 10° SSW
STARLINK-60 3.0 06:23:55 10° WSW 06:27:18 83° NNW 06:30:42 10° ENE
Cosmos 1484 Rocket 4.0 06:24:20 10° NNW 06:27:24 22° WNW 06:30:29 10° WSW
FALCON 9 DEB 3.1 06:24:07 10° WSW 06:27:33 90° W 06:31:01 10° ENE
Cosmos 1743 Rocket 4.1 06:23:22 10° S 06:27:39 63° E 06:31:57 10° NNE
Cosmos 990 Rocket 4.1 06:24:10 10° SW 06:29:13 52° WNW 06:34:20 10° NNE
CZ-2C R/B 3.7 06:29:06 10° SSE 06:33:36 86° WSW 06:38:13 10° NNW
Cosmos 2084 Rocket 4.1 06:29:32 10° W 06:33:43 39° NNW 06:37:56 10° NE
ADEOS Rocket 3.7 06:27:49 10° SSE 06:35:38 90° SE 06:43:12 10° NNW
Okean-O 3.7 06:31:23 10° NNE 06:35:44 52° E 06:40:04 10° S
Cosmos 2322 4.2 06:31:44 10° NNW 06:37:25 61° NE 06:43:02 10° SE
NOSS 3-4 (A) 3.9 06:30:45 10° NW 06:37:38 74° SW 06:45:13 10° SSE
NOSS 3-4 (C) 3.9 06:30:51 10° NW 06:37:44 75° SW 06:45:19 10° SSE
Cosmos 1151 Rocket 3.6 06:34:44 10° NNW 06:38:49 38° W 06:42:53 10° SSW
Cosmos 2333 Rocket 3.3 06:33:30 10° NNW 06:39:01 44° NE 06:44:31 10° ESE
SOZ 4.2 06:35:24 10° WSW 06:39:20 77° SSE 06:41:29 10° E
